AO-07 1 07530U 74089B 26126.89011913 -.00000049 00000-0 -18449-4 0 9997 2 07530 101.9922 139.7037 0012066 208.3736 224.7711 12.53697397355341 UO-11 1 14781U 84021B 26126.87386419 .00001155 00000-0 12340-3 0 9994 2 14781 97.8031 92.9210 0006776 331.7185 28.3664 14.90686366250979 AO-27 1 22825U 93061C 26126.74459963 .00000098 00000-0 54324-4 0 9991 2 22825 98.6894 194.1688 0007705 215.4786 144.5885 14.30931000701075 FO-29 1 24278U 96046B 26126.31526696 -.00000038 00000-0 -16652-5 0 9991 2 24278 98.5286 340.9120 0349410 204.9476 153.4419 13.53272324467506 GO-32 1 25397U 98043D 26126.83163109 .00000060 00000-0 46127-4 0 9998 2 25397 99.0064 118.5500 0001322 25.1506 334.9736 14.24420217445446 ISS 1 25544U 98067A 26126.84466763 .00005913 00000-0 11489-3 0 9995 2 25544 51.6305 144.7453 0007432 30.9733 329.1692 15.49124105565348 NO-44 1 26931U 01043C 26126.81060385 .00000118 00000-0 74805-4 0 9995 2 26931 67.0520 351.2911 0006349 263.7409 96.2970 14.31940068284528 SO-50 1 27607U 02058C 26126.75054816 .00001267 00000-0 16651-3 0 9998 2 27607 64.5522 257.1785 0075640 270.0231 89.2208 14.82959317258317 CO-55 1 27844U 03031E 26126.59047292 .00000294 00000-0 14612-3 0 9999 2 27844 98.6750 135.6712 0008568 311.5321 48.5123 14.24309933185757 RS-22 1 27939U 03042A 26126.86386057 .00001102 00000-0 17817-3 0 9990 2 27939 98.3468 310.0577 0012226 44.3504 62.6976 14.73395957209466 CO-65 1 32785U 08021C 26126.87760515 .00004474 00000-0 28640-3 0 9994 2 32785 97.8271 107.4565 0009536 158.4359 201.7273 15.09067779978969 CO-66 1 32791U 08021J 26125.48367313 .00019885 00000-0 65895-3 0 9991 2 32791 97.7528 121.3956 0005097 99.4422 260.7394 15.31314764980755 RS-30 1 32953U 08025A 26126.81321235 .00000021 00000-0 82268-4 0 9992 2 32953 82.5075 21.1757 0020487 43.2993 316.9693 12.43177863814557 SRMSAT 1 37841U 11058D 26126.65604024 .00000420 00000-0 84320-4 0 9999 2 37841 19.9732 310.8519 0011779 106.9854 320.2524 14.11566398751949 ZACUBE-1 1 39417U 13066B 26126.87663205 .00004435 00000-0 34686-3 0 9990 2 39417 97.8129 88.9908 0042766 32.0759 328.3054 15.00867990674530 Delfi-N3xt 1 39428U 13066N 26126.74327424 .00007256 00000-0 63918-3 0 9992 2 39428 97.8349 47.1074 0074818 346.2573 13.6609 14.94612245668439 GOMX-1 1 39430U 13066Q 26126.85033759 .00001777 00000-0 27342-3 0 9995 2 39430 97.6510 329.9186 0128068 209.7183 149.6707 14.69301143663845 LO-74 1 39440U 13066AA 26126.86182619 .00003161 00000-0 29638-3 0 9996 2 39440 97.8883 75.6839 0058432 162.8596 197.4615 14.93461342670825 AO-73 1 39444U 13066AE 26126.88338250 .00006769 00000-0 42653-3 0 9995 2 39444 97.8255 97.4912 0036124 347.3050 12.7265 15.08950319673439 DTUSAT-2 1 40030U 14033W 26126.88462853 .00005931 00000-0 32606-3 0 9997 2 40030 98.0871 122.0102 0008512 28.4463 331.7230 15.14482542646431 LILACSAT-2 1 40908U 15049K 26126.84520336 .00014652 00000-0 26178-3 0 9993 2 40908 97.4701 162.1482 0008223 56.1360 304.0673 15.50102173589348 Horyu-4 1 41340U 16012D 26126.85597079 .00133028 00000-0 79072-3 0 9994 2 41340 30.9902 17.3509 0006127 332.6209 27.4124 15.76453354564258 Lapan A3 1 41603U 16040E 26126.87180722 .00003741 00000-0 12011-3 0 9990 2 41603 97.1493 124.3857 0011097 154.2832 205.8965 15.32845838548483 CAS-2T 1 41847U 16066G 26126.82040841 .00000688 00000-0 10686-3 0 9993 2 41847 98.3826 203.0241 0340906 255.0300 101.2923 14.44583294498824 TechnoSat 1 42829U 17042E 26126.49035832 .00002802 00000-0 20267-3 0 9992 2 42829 97.4249 285.7547 0016251 232.4333 127.5418 15.04708415480437 AO-91 1 43017U 17073E 26126.59037917 .00008608 00000-0 37858-3 0 9997 2 43017 97.4753 354.6715 0154086 112.0262 249.7417 15.11964808459107 S-Net D 1 43186U 18014G 26126.62753141 .00004991 00000-0 26101-3 0 9998 2 43186 97.5386 31.6845 0009010 151.7177 208.4546 15.16286665452464 S-Net B 1 43187U 18014H 26126.30820357 .00004569 00000-0 23942-3 0 9999 2 43187 97.5393 31.3526 0009745 149.0768 211.1041 15.16254211452415 S-Net A 1 43188U 18014J 26126.49462932 .00005058 00000-0 26438-3 0 9998 2 43188 97.5404 31.7388 0009595 149.3179 210.8617 15.16292204452443 S-Net C 1 43189U 18014K 26126.77381022 .00004388 00000-0 23002-3 0 9999 2 43189 97.5421 32.0845 0011208 142.7050 217.4963 15.16249750451033 Ten-Koh 1 43677U 18084G 26126.50998767 .00001802 00000-0 13967-3 0 9996 2 43677 98.0785 317.1239 0007513 254.8799 105.1594 15.02764598409906 PO-101 1 43678U 18084H 26126.82053933 .00003056 00000-0 24904-3 0 9995 2 43678 98.1080 321.2606 0012424 313.9340 46.0856 15.00250335410011 QO-100 1 43700U 18090A 26126.83772515 .00000152 00000-0 00000 0 0 9994 2 43700 0.0114 274.1710 0001648 160.8469 117.0678 1.00272115 27263 MinXSS-2 1 43758U 18099A 26126.78289769 .00026352 00000-0 57308-3 0 9991 2 43758 97.4548 201.9425 0008078 64.6269 295.5815 15.44268745407737 AO-95 1 43770U 18099N 26126.83868207 .00009277 00000-0 36488-3 0 9994 2 43770 97.4406 187.2612 0010307 129.5005 230.7146 15.25827064406916 SNUSat 2 1 43782U 18099AA 26126.11106903 .00008774 00000-0 39556-3 0 9996 2 43782 97.4086 180.1552 0011997 85.9906 274.2701 15.21200438406634 SnugLite 1 43784U 18099AC 26126.39265077 .00010080 00000-0 39126-3 0 9992 2 43784 97.3895 181.1069 0004478 87.3071 272.8680 15.26279560406943 ITASat 1 1 43786U 18099AE 26126.58014082 .00005971 00000-0 29178-3 0 9992 2 43786 97.4056 178.9325 0014061 133.7507 226.4894 15.18525231406596 EAGLET 1 1 43790U 18099AJ 26126.57933354 .00003588 00000-0 20868-3 0 9997 2 43790 97.4259 177.3529 0012642 125.7472 234.4936 15.12623089406040 ESEO 1 43792U 18099AL 26126.53668053 .00001610 00000-0 12016-3 0 9996 2 43792 97.3995 165.7046 0013348 113.1110 247.1524 15.04112407405543 JO-97 1 43803U 18099AX 26126.12327009 .00017744 00000-0 56955-3 0 9992 2 43803 97.4153 188.8507 0006926 70.9167 289.2824 15.32346816407183 Suomi 100 1 43804U 18099AY 26126.61951161 .00009864 00000-0 36879-3 0 9996 2 43804 97.4212 187.1926 0011454 72.7534 287.4957 15.27480469407079 ISAT 1 43879U 18111D 26126.77016578 .00062999 00000-0 80979-3 0 9992 2 43879 97.5901 59.0363 0008657 95.8023 264.4220 15.58849203404703 UWE-4 1 43880U 18111E 26126.75842828 .00026522 00000-0 58830-3 0 9990 2 43880 97.5861 53.3277 0010661 109.4077 250.8323 15.43656146404383 Sparrow 1 43881U 18111F 26126.80292336 .00088490 00000-0 90041-3 0 9992 2 43881 97.6128 64.0711 0007570 116.6814 243.5220 15.64833416404887 Prox-1 1 44339U 19036A 26126.40472577 .00012248 00000-0 12208-2 0 9997 2 44339 23.9965 33.1268 0006408 268.7837 91.1928 14.89644670367231 Taurus 1 1 44530U 19059C 26126.84202420 .00004679 00000-0 75948-3 0 9991 2 44530 98.6392 289.1278 0009649 85.4206 274.8101 14.71656434352560 TO-108 1 44881U 19093C 26126.84836675 .00000993 00000-0 11834-3 0 9992 2 44881 97.7539 200.0872 0012445 218.4421 141.5910 14.86454342345277 RS-44 1 44909U 19096E 26126.41261569 .00000023 00000-0 52284-4 0 9992 2 44909 82.5249 7.4674 0216486 241.9477 115.9582 12.79748118297004 SALSAT 1 46495U 20068K 26126.40527816 .00007590 00000-0 27037-3 0 9997 2 46495 97.8867 126.9486 0011695 90.3760 269.8819 15.29190501308971 CSS (TIANHE-1) 1 48274U 21035A 26126.70362752 .00018221 00000-0 19510-3 0 9998 2 48274 41.4662 214.4258 0005096 344.4679 15.6004 15.63406090286683 CUTE 1 49263U 21088D 26126.81775583 .00189027 00000-0 11570-2 0 9997 2 49263 97.4197 222.6770 0000372 317.2131 42.9105 15.76786774256001 TeikyoSat 4 1 49396U 21102B 26126.55549278 .00002197 00000-0 14114-3 0 9992 2 49396 97.3703 157.6552 0013762 78.7436 281.5339 15.09362393246449 Z-Sat 1 49399U 21102E 26126.86996186 .00003600 00000-0 17988-3 0 9995 2 49399 97.3358 163.4495 0017745 37.0363 323.2092 15.17954289247172 KOSEN 1 1 49402U 21102H 26126.38610852 .00007213 00000-0 28032-3 0 9996 2 49402 97.3218 169.3659 0013503 3.4086 356.7243 15.26269934247643 HO-113 1 50466U 21131B 26126.88842083 .00000535 00000-0 17918-3 0 9999 2 50466 98.4956 219.5065 0003429 206.8969 153.2043 14.41318177229165 SNUGLITE 2 1 52899U 22065F 26126.34825546 .00001010 00000-0 20074-3 0 9990 2 52899 98.2146 271.2683 0008215 147.5779 212.5930 14.64268884204874 UmKA 1 (RS40S) 1 57172U 23091G 26126.83284933 .00005322 00000-0 24739-3 0 9994 2 57172 97.5074 185.6982 0011257 262.0056 97.9901 15.20354363157721 CubeBel-2 (EU11S) 1 57175U 23091K 26126.81313412 .00008807 00000-0 32276-3 0 9996 2 57175 97.5070 189.6878 0008566 257.3219 102.7062 15.28209472157984 RS-38S 1 57189U 23091Z 26126.82676065 .00012683 00000-0 37859-3 0 9997 2 57189 97.5105 195.5231 0007073 206.3675 153.7209 15.34740433158343 SONATE-2 1 59112U 24043Q 26126.36776903 .00031240 00000-0 45228-3 0 9993 2 59112 97.5496 274.3124 0006221 359.7001 0.4249 15.55820028121389 GRBBeta 1 60237U 24128C 26126.86781154 .00003527 00000-0 24787-3 0 9990 2 60237 61.9913 1.1976 0045946 126.0580 234.4783 15.06306480100042 Curium One 1 60242U 24128H 26126.84171992 .00006694 00000-0 39262-3 0 9999 2 60242 61.9801 352.1385 0045656 122.5211 238.0308 15.11856676100201 ROBUSTA-3A 1 60243U 24128J 26126.84999413 .00006415 00000-0 38497-3 0 9996 2 60243 61.9876 354.3543 0046721 119.9349 240.6398 15.11039807100173 CatSat 1 60246U 24125J 26126.66741542 .00041122 00000-0 61999-3 0 9991 2 60246 97.2130 338.7657 0022085 338.8558 21.1781 15.54385998100938 HYPERVIEW-1G (RS66S) 1 61772U 24199AP 26126.84779054 .00073479 00000-0 68535-3 0 9999 2 61772 97.2952 4.7713 0008335 79.8885 280.3316 15.67061987128188 AO-123 1 61781U 24199AY 26126.84483714 .00006772 00000-0 20052-3 0 9998 2 61781 97.3051 355.8951 0015920 96.9947 263.3108 15.35075835127585 JINJUSat 1B 1 63210U 25052A 26126.69218750 .00013609 00000-0 43932-3 0 9994 2 63210 97.4046 23.4251 0002142 192.6848 167.4340 15.32244383 63748 NUSHSAT 1 1 63211U 25052B 26126.47194738 .00017625 00000-0 53096-3 0 9994 2 63211 97.4020 23.6378 0001797 190.5608 169.5597 15.34392633 63740 TEVEL2-4 1 63213U 25052D 26126.69086007 .00015393 00000-0 48192-3 0 9990 2 63213 97.3942 23.0522 0000767 194.8848 165.2372 15.33197233 63751 TEVEL2-5 1 63214U 25052E 26126.64171870 .00015497 00000-0 48754-3 0 9998 2 63214 97.3939 22.9620 0000776 195.7967 164.3251 15.33042552 63745 TEVEL2-6 1 63215U 25052F 26126.65304130 .00015759 00000-0 49629-3 0 9990 2 63215 97.3944 22.9583 0000824 208.0235 152.0963 15.33005078 63746 TEVEL2-1 1 63217U 25052H 26126.66839295 .00015466 00000-0 49454-3 0 9999 2 63217 97.3920 22.6454 0000443 264.1902 95.9289 15.32520912 63730 TEVEL2-3 1 63218U 25052J 26126.59911419 .00015584 00000-0 49759-3 0 9990 2 63218 97.3919 22.5931 0000510 268.2723 91.8461 15.32565308 63723 TEVEL2-2 1 63219U 25052K 26126.66889642 .00015227 00000-0 48688-3 0 9995 2 63219 97.3920 22.6471 0000494 269.7178 90.4007 15.32526459 63733 TEVEL2-9 1 63237U 25052AD 26125.67911195 .00017826 00000-0 60369-3 0 9991 2 63237 97.3982 21.1221 0004279 302.6918 57.3910 15.30631391 63524 TEVEL2-7 1 63238U 25052AE 26126.69312013 .00012982 00000-0 44379-3 0 9990 2 63238 97.3982 22.0652 0004316 297.8131 62.2672 15.30398916 63676 TEVEL2-8 1 63239U 25052AF 26126.24320891 .00015003 00000-0 51282-3 0 9993 2 63239 97.3983 21.5951 0004304 300.9661 59.1156 15.30368656 63608 HYDRA-W 1 63490U 25052BL 26113.93882235 .05662091 24406-5 29537-2 0 9997 2 63490 97.3690 18.2798 0008685 203.5899 156.4993 16.20186780 62336 HADES-ICM (SO-125) 1 63492U 25052BN 26125.23154483 .00799001 00000-0 30672-2 0 9990 2 63492 97.3785 28.6812 0006494 160.2566 199.8957 15.85446468 64000 SPIRONE 1 66657U 25274H 26126.78176625 .00001700 00000-0 16718-3 0 9993 2 66657 97.7473 56.6731 0012875 145.8219 214.3832 14.93378427 24041 K-HERO 1 66660U 25274L 26126.79806236 .00001918 00000-0 18585-3 0 9991 2 66660 97.7475 56.8193 0014696 151.0484 209.1554 14.93804670 24055 SNUGLITE-III DURI 1 66661U 25274M 26126.78718706 .00001335 00000-0 13076-3 0 9998 2 66661 97.7478 56.8276 0015238 152.0237 208.1805 14.93861584 24056 SilverSat 1 66909U 98067XV 26113.44966717 .07226154 12288-4 11979-2 0 9998 2 66909 51.6027 190.0749 0007952 333.4666 26.5949 16.32457272 22308 SAKHACUBE-CHOLBON 1 67290U 25313AU 26126.74265828 .00008919 00000-0 36895-3 0 9998 2 67290 97.3933 202.3184 0010664 136.8595 223.3480 15.24137905 19665 RS95S (QMR-KWT-2) 1 67291U 25313AV 26126.63307311 .00012497 00000-0 49933-3 0 9994 2 67291 97.3936 202.3101 0010412 136.9098 223.2957 15.25215528 19654 Ten-Koh2 1 68261U 25241B 26126.36554098 .00005886 00000-0 25793-3 0 9990 2 68261 51.6502 158.6033 0006035 11.4956 348.6158 15.23365507 8538 JACK-002 1 68417U 26067B 26126.86117618 .00005368 00000-0 26059-3 0 9999 2 68417 97.4545 85.9882 0004008 77.7246 282.4437 15.18884141 5676 DISCO 2 1 68431U 26067R 26126.80628575 .00007855 00000-0 38409-3 0 9993 2 68431 97.4584 85.9267 0004185 117.5365 242.6295 15.18482366 5665 HADES-SA (SpinnyONE) 1 68446U 26067AG 26126.76805378 .00015899 00000-0 79036-3 0 9990 2 68446 97.4400 85.7388 0006087 199.1932 160.9073 15.17710775 5640 PARUS-6U1 1 68456U 26067AS 26126.83830279 .00005306 00000-0 27113-3 0 9998 2 68456 97.4533 85.8605 0005115 188.0827 172.0325 15.17090683 5667 SAL-E 1 68458U 26067AU 26126.83803604 .00006949 00000-0 35303-3 0 9996 2 68458 97.4458 85.8270 0005014 198.2049 161.9006 15.17180860 5660 FSI-SAT 2 1 68792U 26088A 26126.37831763 .00004274 00000-0 29299-3 0 9992 2 68792 97.5014 276.7112 0013461 248.2388 111.7407 15.06490093 1993 OrigamiSat 2 1 68795U 26088D 26126.36537850 .00004140 00000-0 27278-3 0 9991 2 68795 97.5029 276.7298 0015005 219.9037 140.1090 15.07960369 1992 ARICA 2 1 68796U 26088E 26126.36447947 .00005209 00000-0 34099-3 0 9995 2 68796 97.5015 276.7272 0015096 218.0813 141.9350 15.08079317 1995 WASEDA-SAT-ZERO-II 1 68797U 26088F 26126.36405833 .00007039 00000-0 45838-3 0 9990 2 68797 97.5002 276.7273 0014994 217.9541 142.0632 15.08152938 1991 MANGARO-II-Piscus 1 68798U 26088G 26126.49368161 .00004718 00000-0 30566-3 0 9990 2 68798 97.5023 276.8633 0018348 220.9978 138.9872 15.08470902 2019 IO-86 1 40931U 25360.30710720 .00000000 00000-0 12800-3 0 00 2 40931 6.0006 332.5373 0012733 338.8432 8.1437 14.79075515 01 LILIUM-4 1 71922C 26067AC 26089.50133053 -.00014632 00000 0 -74472-3 0 04 2 71922 97.4497 49.1617 0004341 5.9603 355.7042 15.16896692 16